Total_Precipitation_Accumulation
0.60 0.43 0.34 0.33 0.32 0.30 0.32 0.43 0.77 1.16 1.56 1.87 2.09 2.13 2.00 1.70 1.46 1.46 1.53 1.57 1.51 1.39 1.27 1.11 1.01 1.01 0.98 0.95 0.90 0.86 0.88 0.94 1.03 0.97 0.93 1.00 1.05 0.94 0.84 0.80 0.77 0.78 0.72 0.68
0.50 0.40 0.39 0.46 0.44 0.47 0.50 0.56 0.74 1.11 1.64 1.83 1.82 1.61 1.58 1.53 1.40 1.52 1.68 1.76 1.69 1.56 1.41 1.21 1.07 1.01 0.99 0.95 0.84 0.78 0.82 0.94 1.01 1.00 0.98 1.02 1.08 1.02 0.94 0.88 0.85 0.81 0.76 0.71
0.68 0.50 0.63 1.01 0.80 0.73 0.74 0.74 0.86 1.21 1.41 1.33 1.37 1.37 1.40 1.42 1.47 1.66 1.82 1.80 1.69 1.61 1.46 1.29 1.23 1.10 1.07 1.02 0.89 0.87 0.88 0.89 0.96 1.01 1.06 1.09 1.07 1.04 1.00 0.98 0.96 0.86 0.77 0.74
0.67 0.81 1.36 1.30 0.80 0.73 0.76 0.77 0.74 0.84 0.89 0.98 1.10 1.23 1.39 1.47 1.61 1.80 1.91 1.96 1.90 1.68 1.50 1.32 1.18 1.08 1.02 0.97 0.90 0.92 0.92 0.88 0.85 0.88 0.91 0.91 0.98 1.03 1.00 0.96 0.91 0.85 0.78 0.73
0.89 1.17 1.41 1.22 0.77 0.71 0.88 1.02 0.76 0.68 0.68 0.79 0.87 1.05 1.48 1.62 1.69 1.82 1.89 1.86 1.82 1.66 1.54 1.41 1.24 1.11 1.03 0.99 0.94 0.90 0.86 0.81 0.74 0.71 0.74 0.75 0.83 0.94 1.00 0.97 0.87 0.79 0.72 0.69
1.00 1.41 1.84 1.55 0.70 0.46 0.74 1.36 0.91 0.62 0.54 0.65 0.88 1.22 1.43 1.41 1.46 1.47 1.46 1.40 1.39 1.35 1.30 1.23 1.11 1.01 1.01 1.00 0.92 0.83 0.75 0.68 0.63 0.62 0.67 0.68 0.74 0.85 0.91 0.92 0.81 0.67 0.60 0.60
1.08 1.43 1.66 0.89 0.48 0.52 1.22 1.55 1.05 0.79 0.69 0.75 0.99 1.10 0.99 0.96 1.10 1.16 1.21 1.18 1.12 1.10 1.12 1.09 0.99 0.97 1.00 0.96 0.89 0.72 0.60 0.58 0.60 0.65 0.68 0.67 0.74 0.81 0.79 0.73 0.72 0.65 0.60 0.58
1.22 1.59 1.71 0.68 0.51 0.93 1.11 0.82 0.78 0.77 0.79 0.82 0.80 0.72 0.69 0.75 0.92 1.12 1.26 1.23 1.13 1.08 1.03 0.95 0.91 0.96 0.99 0.91 0.74 0.60 0.58 0.61 0.65 0.65 0.61 0.60 0.71 0.78 0.71 0.69 0.68 0.66 0.64 0.58
1.24 1.43 1.05 0.56 0.55 0.57 0.57 0.56 0.57 0.58 0.61 0.65 0.71 0.71 0.68 0.76 0.89 1.07 1.15 1.17 1.12 1.03 0.93 0.82 0.77 0.81 0.85 0.72 0.55 0.51 0.56 0.65 0.66 0.62 0.68 0.68 0.65 0.65 0.65 0.67 0.59 0.54 0.55 0.52
0.97 0.95 0.69 0.52 0.44 0.41 0.43 0.47 0.50 0.55 0.58 0.65 0.81 0.83 0.79 0.82 0.94 1.05 1.07 0.97 0.89 0.84 0.79 0.69 0.61 0.59 0.58 0.48 0.47 0.52 0.60 0.62 0.60 0.64 0.74 0.72 0.63 0.53 0.51 0.51 0.48 0.44 0.45 0.44
1.22 1.08 0.81 0.56 0.45 0.45 0.44 0.49 0.55 0.64 0.64 0.68 0.74 0.80 0.82 0.83 0.85 0.86 0.85 0.78 0.70 0.68 0.64 0.53 0.49 0.45 0.41 0.38 0.42 0.52 0.55 0.58 0.59 0.60 0.64 0.67 0.58 0.45 0.42 0.37 0.30 0.30 0.32 0.33
1.52 1.19 1.05 0.80 0.61 0.62 0.62 0.61 0.62 0.59 0.56 0.59 0.58 0.59 0.65 0.67 0.69 0.68 0.69 0.65 0.62 0.58 0.54 0.47 0.45 0.42 0.39 0.35 0.38 0.49 0.53 0.51 0.46 0.48 0.50 0.50 0.51 0.45 0.30 0.18 0.14 0.13 0.14 0.18
1.19 0.95 0.86 0.80 0.71 0.71 0.65 0.51 0.45 0.43 0.39 0.43 0.47 0.47 0.48 0.49 0.50 0.52 0.55 0.52 0.50 0.45 0.41 0.42 0.41 0.36 0.36 0.34 0.34 0.40 0.48 0.47 0.39 0.37 0.40 0.41 0.42 0.48 0.43 0.26 0.13 0.10 0.09 0.12
0.79 0.76 0.74 0.58 0.45 0.37 0.30 0.27 0.28 0.30 0.29 0.28 0.31 0.33 0.34 0.34 0.37 0.40 0.45 0.45 0.39 0.34 0.31 0.33 0.34 0.31 0.29 0.30 0.31 0.34 0.35 0.32 0.32 0.38 0.37 0.35 0.34 0.33 0.37 0.43 0.37 0.28 0.17 0.14
0.49 0.50 0.42 0.29 0.21 0.19 0.19 0.20 0.25 0.27 0.26 0.27 0.25 0.25 0.25 0.29 0.32 0.33 0.37 0.38 0.34 0.31 0.29 0.30 0.31 0.29 0.24 0.23 0.26 0.31 0.31 0.29 0.29 0.31 0.31 0.27 0.25 0.25 0.28 0.34 0.36 0.36 0.31 0.23
0.30 0.27 0.24 0.20 0.19 0.18 0.19 0.19 0.24 0.24 0.23 0.23 0.24 0.23 0.22 0.22 0.23 0.28 0.33 0.32 0.32 0.34 0.34 0.31 0.29 0.24 0.19 0.18 0.20 0.22 0.20 0.18 0.22 0.26 0.25 0.22 0.22 0.23 0.25 0.29 0.32 0.32 0.34 0.31
0.28 0.25 0.22 0.21 0.19 0.19 0.19 0.19 0.20 0.18 0.18 0.18 0.18 0.17 0.16 0.17 0.20 0.27 0.30 0.29 0.28 0.29 0.30 0.30 0.24 0.18 0.16 0.15 0.16 0.15 0.16 0.17 0.19 0.19 0.18 0.18 0.19 0.18 0.17 0.22 0.27 0.31 0.28 0.26
0.26 0.25 0.22 0.23 0.21 0.20 0.17 0.15 0.16 0.15 0.13 0.11 0.11 0.12 0.13 0.16 0.20 0.23 0.24 0.24 0.23 0.25 0.27 0.24 0.18 0.15 0.14 0.13 0.12 0.12 0.15 0.17 0.18 0.16 0.16 0.15 0.15 0.15 0.15 0.19 0.23 0.28 0.28 0.27
0.24 0.23 0.18 0.17 0.17 0.16 0.15 0.13 0.13 0.12 0.10 0.10 0.10 0.11 0.13 0.15 0.17 0.19 0.20 0.22 0.25 0.27 0.24 0.18 0.15 0.15 0.14 0.12 0.12 0.13 0.15 0.17 0.17 0.15 0.13 0.13 0.13 0.14 0.15 0.18 0.22 0.25 0.28 0.29
0.19 0.20 0.17 0.13 0.12 0.14 0.14 0.12 0.10 0.10 0.10 0.10 0.11 0.12 0.13 0.15 0.15 0.16 0.20 0.23 0.24 0.20 0.18 0.16 0.15 0.15 0.13 0.12 0.12 0.14 0.14 0.14 0.15 0.16 0.15 0.14 0.13 0.13 0.11 0.12 0.16 0.19 0.23 0.23
0.18 0.19 0.15 0.12 0.13 0.15 0.15 0.13 0.12 0.12 0.12 0.12 0.13 0.15 0.16 0.16 0.15 0.16 0.18 0.21 0.19 0.16 0.15 0.13 0.13 0.15 0.14 0.13 0.12 0.12 0.12 0.12 0.13 0.13 0.12 0.12 0.12 0.11 0.10 0.11 0.14 0.15 0.16 0.18
0.20 0.21 0.16 0.13 0.16 0.17 0.17 0.16 0.14 0.12 0.12 0.12 0.12 0.14 0.16 0.16 0.16 0.16 0.15 0.17 0.15 0.14 0.16 0.15 0.13 0.13 0.13 0.12 0.11 0.11 0.10 0.10 0.10 0.09 0.08 0.08 0.09 0.09 0.09 0.10 0.12 0.13 0.13 0.15
0.23 0.20 0.16 0.14 0.16 0.18 0.17 0.15 0.14 0.13 0.13 0.13 0.12 0.14 0.15 0.16 0.16 0.16 0.15 0.13 0.13 0.12 0.13 0.14 0.14 0.12 0.10 0.08 0.09 0.10 0.08 0.09 0.10 0.09 0.07 0.06 0.08 0.10 0.10 0.10 0.10 0.11 0.12 0.13
0.27 0.22 0.18 0.14 0.16 0.19 0.20 0.18 0.14 0.13 0.14 0.15 0.15 0.15 0.17 0.17 0.17 0.15 0.13 0.12 0.11 0.10 0.09 0.09 0.11 0.08 0.06 0.06 0.07 0.08 0.08 0.08 0.07 0.06 0.05 0.06 0.07 0.09 0.09 0.07 0.07 0.08 0.09 0.10
0.32 0.27 0.20 0.19 0.22 0.24 0.23 0.20 0.18 0.17 0.18 0.20 0.18 0.18 0.19 0.18 0.16 0.13 0.12 0.13 0.13 0.12 0.09 0.07 0.07 0.08 0.07 0.06 0.07 0.07 0.06 0.07 0.06 0.06 0.06 0.07 0.08 0.07 0.07 0.06 0.07 0.07 0.08 0.09
0.41 0.36 0.29 0.26 0.24 0.24 0.22 0.23 0.22 0.22 0.24 0.25 0.23 0.21 0.20 0.17 0.13 0.10 0.11 0.12 0.12 0.11 0.08 0.07 0.07 0.08 0.08 0.07 0.07 0.06 0.06 0.06 0.06 0.06 0.07 0.07 0.06 0.05 0.04 0.05 0.06 0.07 0.07 0.07
0.49 0.43 0.38 0.29 0.22 0.22 0.24 0.26 0.24 0.22 0.21 0.23 0.23 0.20 0.16 0.15 0.12 0.11 0.10 0.12 0.11 0.10 0.08 0.07 0.08 0.07 0.07 0.07 0.07 0.07 0.06 0.06 0.07 0.07 0.06 0.05 0.05 0.05 0.05 0.05 0.06 0.06 0.07 0.07